Regional Weather Roundup
Issued by NWS Little Rock, AR

Home | Current Version | Previous Version | Text Only | Print | Product List | Glossary On
Versions: 1 2 3 4 5 6 7 8 9 10 11 12 13 14 15 16 17 18 19 20 21 22 23 24 25 26 27 28 29 30 31 32 33 34 35 36 37 38 39 40 41 42 43 44 45 46 47 48 49 50
000
ASUS44 KLZK 301105
RWRLZK

WEATHER ROUNDUP FOR ARKANSAS
NATIONAL WEATHER SERVICE LITTLE ROCK AR
600 AM CDT MON MAR 30 2015

NOTE: "FAIR" INDICATES FEW OR NO CLOUDS BELOW 12,000 FEET WITH NO
SIGNIFICANT WEATHER AND/OR OBSTRUCTIONS TO VISIBILITY.

ARZ001-003-010-029-301200-
NORTHWEST ARKANSAS

CITY           SKY/WX    TMP DP  RH WIND       PRES   REMARKS
FAYETTEVILLE   CLEAR     36  36 100 CALM      30.20R FOG
FORT SMITH     CLEAR     45  42  89 CALM      30.18R
HARRISON       CLEAR     46  41  82 W5        30.20R
BENTONVILLE    CLEAR     43  37  81 E6        30.19F
ROGERS         CLEAR     43  40  89 E7        30.19F
SILOAM SPGS    CLEAR     43  36  75 E6        30.19F
HIGHFILL       CLEAR     43  40  89 NE6       30.18S
SPRINGDALE     CLEAR     46  41  81 E6        30.21
$$

ARZ004-005-016-301200-
NORTH CENTRAL ARKANSAS

CITY           SKY/WX    TMP DP  RH WIND       PRES   REMARKS
BATESVILLE     CLEAR     50  41  71 NW5       30.19R
FLIPPIN        CLEAR     45  37  76 CALM      30.20R
MTN HOME       CLEAR     42  41  96 W3        30.19R
$$

ARZ040-041-301200-
WEST CENTRAL ARKANSAS

CITY           SKY/WX    TMP DP  RH WIND       PRES   REMARKS
MENA           PTCLDY    48  45  87 CALM      30.18R
MOUNT IDA      PTCLDY    47  44  90 CALM      30.16R
$$

ARZ009-017-025-026-028-301200-
NORTHEAST ARKANSAS

CITY           SKY/WX    TMP DP  RH WIND       PRES   REMARKS
CORNING          N/A     41  39  93 CALM      30.17R
JONESBORO      CLEAR     49  43  80 N7        30.16R
NEWPORT        CLEAR     48  44  86 N6        30.19R
BLYTHEVILLE    CLEAR     43  41  93 N7        30.16R
$$

ARZ022-023-033-042-044-301200-
CENTRAL ARKANSAS

CITY           SKY/WX    TMP DP  RH WIND       PRES   REMARKS
LITTLE ROCK    CLEAR     53  45  74 CALM      30.18R
N LITTLE ROCK    N/A     55  47  73 NW7       30.18R
JACKSONVILLE   CLEAR     44  41  88 CALM      30.17R
SEARCY         CLEAR     45  43  93 CALM      30.21R
HOT SPRINGS    PTCLDY    53  49  86 CALM      30.18R
RUSSELLVILLE   CLEAR     43  41  93 CALM      30.19R
CLINTON        FAIR      39  39 100 CALM      30.21R FOG
$$

ARZ036-301200-
EAST ARKANSAS

CITY           SKY/WX    TMP DP  RH WIND       PRES   REMARKS
WEST MEMPHIS   CLEAR     50  47  89 N7        30.15R
$$

ARZ050-053-066-070-073-301200-
SOUTHWEST ARKANSAS

CITY           SKY/WX    TMP DP  RH WIND       PRES   REMARKS
ARKADELPHIA    FAIR      56  56 100 CALM      30.18R
CAMDEN         CLOUDY    61  54  77 CALM      30.16R
TEXARKANA      CLEAR     60  55  83 E3        30.14R
EL DORADO      CLOUDY    60  58  92 CALM      30.16R
DE QUEEN       PTCLDY    53  51  93 E3        30.14R
$$

ARZ056-057-069-301200-
SOUTHEAST ARKANSAS

CITY           SKY/WX    TMP DP  RH WIND       PRES   REMARKS
PINE BLUFF     MOCLDY    58  48  69 N5        30.18R
STUTTGART      PTCLDY    54  46  76 N7        30.17R
MONTICELLO     PTCLDY    60  54  80 CALM      30.16R

$$




USA.gov is the U.S. government's official web portal to all federal, state and local government web resources and services.